Regional Weather Roundup
Issued by NWS Raleigh/Durham, NC

Home | Current Version | Previous Version | Text Only | Print | Product List | Glossary On
Versions: 1 2 3 4 5 6 7 8 9 10 11 12 13 14 15 16 17 18 19 20 21 22 23 24 25 26 27 28
000
ASUS42 KRAH 180610
RWRRAH
NORTH CAROLINA WEATHER ROUNDUP
NATIONAL WEATHER SERVICE RALEIGH NC
200 AM EDT WED OCT 18 2017

NOTE: "FAIR" INDICATES FEW OR NO CLOUDS BELOW 12,000 FEET WITH NO
SIGNIFICANT WEATHER AND/OR OBSTRUCTIONS TO VISIBILITY.

NCZ001-053-055-056-065-067-180700-
WESTERN NORTH CAROLINA

CITY           SKY/WX    TMP DP  RH WIND       PRES   REMARKS
ASHEVILLE      CLEAR     42  40  92 CALM      30.35S
JEFFERSON      CLEAR     38  37  97 CALM      30.34S
MORGANTON      CLEAR     38  38 100 CALM      30.38S
HICKORY        CLEAR     45  43  93 NW3       30.34S
RUTHERFORDTON  CLEAR     44  44 100 W5        30.35S
MOUNT AIRY     CLEAR     44  40  87 CALM      30.36S
BOONE          CLEAR     35  35 100 CALM      30.36S
$$

NCZ021-022-025-041-071-084-088-180700-
CENTRAL NORTH CAROLINA

CITY           SKY/WX    TMP DP  RH WIND       PRES   REMARKS
CHARLOTTE      CLEAR     46  41  82 CALM      30.34R
GREENSBORO     CLEAR     45  41  86 CALM      30.32S
WINSTON-SALEM  CLEAR     46  40  79 CALM      30.34S
RALEIGH-DURHAM CLEAR     42  40  92 CALM      30.32F
FORT BRAGG     CLEAR     46  43  89 CALM      30.31R
FAYETTEVILLE   CLEAR     46  44  93 N3        30.31S
BURLINGTON     CLEAR     42  40  92 CALM      30.33S
LAURINBURG     CLEAR     44  41  89 CALM      30.32R
$$

NCZ011-015-027-028-043-044-047-080-103-180700-
NORTHEASTERN NORTH CAROLINA

CITY           SKY/WX    TMP DP  RH WIND       PRES   REMARKS
ROCKY MT-WILSO CLEAR     41  41 100 CALM      30.33S
GREENVILLE     CLEAR     41  41 100 CALM      30.33S FOG
WASHINGTON     CLEAR     46  43  88 N3        30.32S
ELIZABETH CITY CLEAR     53  48  83 N12       30.31F
MANTEO         CLEAR    N/A N/A N/A NE8       30.30S
CAPE HATTERAS  CLEAR     62  52  69 NE9G18    30.26F
$$

NCZ078-087-090-091-093-098-101-180700-
SOUTHEASTERN NORTH CAROLINA

CITY           SKY/WX    TMP DP  RH WIND       PRES   REMARKS
LUMBERTON      CLEAR     41  40  96 NE9G21    30.31R
GOLDSBORO      CLEAR     46  41  85 CALM      30.30S
KINSTON        CLEAR     42  41  95 CALM      30.32S
KENANSVILLE    CLEAR     41  39  93 CALM      30.31F
NEW BERN       CLEAR     50  46  86 NE8       30.31F
CHERRY POINT   CLEAR     53  48  83 N10       30.30F
BEAUFORT       PTCLDY    52  49  89 N9        30.28F
JACKSONVILLE   CLEAR     49  45  86 N7        30.29F
WILMINGTON     CLEAR     47  44  90 NE5       30.29S
$$





USA.gov is the U.S. government's official web portal to all federal, state and local government web resources and services.